Stations météo

réclame
Mon MeteoGroup
Guernsey, Grande-Bretagne (3894): Température de l'air & dewpoint: 19.02.2018 09:00:00 - 25.02.2018 09:00:00 (GMT)Guernsey, Grande-Bretagne (3894): Température de l'air -20cm & Température de l'air -100cm: 19.02.2018 09:00:00 - 25.02.2018 09:00:00 (GMT)Guernsey, Grande-Bretagne (3894): Vitesse du vent & gusts: 19.02.2018 09:00:00 - 25.02.2018 09:00:00 (GMT)Guernsey, Grande-Bretagne (3894): Direction du vent: 19.02.2018 09:00:00 - 25.02.2018 09:00:00 (GMT)Guernsey, Grande-Bretagne (3894): reduced air pressure: 19.02.2018 09:00:00 - 25.02.2018 09:00:00 (GMT)Guernsey, Grande-Bretagne (3894): visibility: 19.02.2018 09:00:00 - 25.02.2018 09:00:00 (GMT)Guernsey, Grande-Bretagne (3894): Quantités de précipitations: 19.02.2018 09:00:00 - 25.02.2018 09:00:00 (GMT)
Date & Time tt [°C] td [°C] tt -20cm [°C] tt -100cm [°C] ff [km/h] ff [knt] fx [km/h] fx [knt] dd ppp [hPa] vv [km] rr [mm]
25.02.2018 09:00:00 2,6 -3,2 - - 31 17 50 27 E 1021,7 10 -
25.02.2018 08:00:00 2,2 -2,7 - - 29 16 46 25 E 1021,4 10 -
25.02.2018 07:00:00 2,1 -2,5 - - 26 14 - - ENE 1020,9 10 -
25.02.2018 06:00:00 2,3 -2,5 - - 24 13 - - ENE 1021,0 10 0,0
25.02.2018 05:00:00 2,6 -2,5 - - 21 11 - - ENE 1020,5 10 -
25.02.2018 04:00:00 3,1 -2,1 - - 22 12 - - E 1020,4 10 -
25.02.2018 03:00:00 3,3 -2,3 - - 24 13 - - E 1019,8 25 -
25.02.2018 02:00:00 3,6 -2,3 - - 24 13 - - E 1019,9 25 -
25.02.2018 01:00:00 3,6 -3,3 - - 22 12 - - E 1019,6 23 -
25.02.2018 00:00:00 3,5 -3,1 - - 22 12 - - E 1019,8 20 0,0
24.02.2018 23:00:00 3,4 -3,8 - - 22 12 - - E 1019,5 20 -
24.02.2018 22:00:00 3,4 -3,9 - - 28 15 46 25 E 1019,1 15 -
24.02.2018 21:00:00 3,2 -2,8 - - 26 14 46 25 E 1018,8 10 -
24.02.2018 20:00:00 3,2 -2,1 - - 28 15 46 25 E 1018,3 10 -
24.02.2018 19:00:00 3,3 -1,3 - - 29 16 54 29 ENE 1017,8 9 -
24.02.2018 18:00:00 4,0 0,5 - - 34 18 55 30 ENE 1016,8 9 0,0
24.02.2018 17:00:00 4,1 0,5 - - 34 18 54 29 ENE 1016,4 9 -
24.02.2018 16:00:00 1,0 1,0 - - 35 19 52 28 ENE 1016,0 10 -
24.02.2018 15:00:00 4,9 -0,1 - - 31 17 46 25 ENE 1016,1 10 -
24.02.2018 14:00:00 5,2 -1,0 - - 29 16 - - ENE 1016,1 10 -
24.02.2018 13:00:00 5,2 -2,6 - - 26 14 - - ENE 1016,6 10 -
24.02.2018 12:00:00 4,9 -1,6 - - 18 10 - - E 1017,1 10 0,0
24.02.2018 11:00:00 4,2 -2,6 - - 21 11 - - E 1017,2 10 -
24.02.2018 10:00:00 3,7 -2,3 - - 16 9 - - E 1017,1 10 -
24.02.2018 09:00:00 3,0 -2,9 6,5 8,7 21 11 - - E 1017,0 10 -
24.02.2018 08:00:00 2,3 -3,5 - - 24 13 - - E 1016,5 10 -
24.02.2018 07:00:00 1,6 -3,5 - - 13 7 - - E 1016,3 10 -
24.02.2018 06:00:00 1,5 -3,5 - - 16 9 - - E 1016,0 10 0,0
24.02.2018 05:00:00 1,3 -3,2 - - 16 9 - - E 1015,7 10 -
24.02.2018 04:00:00 1,6 -3,3 - - 21 11 - - E 1015,7 10 -
24.02.2018 03:00:00 1,2 -4,6 - - 21 11 - - E 1015,9 10 -
24.02.2018 02:00:00 0,8 -3,5 - - 18 10 - - E 1016,2 10 -
24.02.2018 01:00:00 1,3 -3,4 - - 24 13 - - E 1016,0 10 -
24.02.2018 00:00:00 1,3 -4,0 - - 28 15 - - ESE 1015,9 20 0,0
23.02.2018 23:00:00 1,8 -3,1 - - 29 16 - - ESE 1015,9 20 -
23.02.2018 22:00:00 1,9 -3,1 - - 31 17 - - E 1015,6 20 -
23.02.2018 21:00:00 1,9 -2,3 - - 28 15 48 26 E 1015,8 10 -
23.02.2018 20:00:00 1,8 -2,7 - - 28 15 46 25 E 1015,4 10 -
23.02.2018 19:00:00 1,8 -3,1 - - 22 12 - - E 1015,7 10 -
23.02.2018 18:00:00 2,0 -3,1 - - 24 13 - - E 1015,8 10 0,0
23.02.2018 17:00:00 3,0 -3,1 - - 24 13 - - ENE 1015,6 10 -
23.02.2018 16:00:00 3,8 -2,6 - - 22 12 - - ENE 1015,6 10 -
23.02.2018 15:00:00 4,0 -3,1 - - 22 12 - - ENE 1016,0 10 -
23.02.2018 14:00:00 4,3 -3,1 - - 24 13 - - ENE 1016,2 10 -
23.02.2018 13:00:00 4,2 -2,2 - - 26 14 - - E 1016,8 10 -
23.02.2018 12:00:00 4,1 -2,4 - - 22 12 - - E 1017,4 10 0,0
23.02.2018 11:00:00 3,9 -2,5 - - 24 13 - - E 1017,8 10 -
23.02.2018 10:00:00 3,6 -2,5 - - 24 13 - - ENE 1018,0 10 -
23.02.2018 09:00:00 3,0 -2,6 7,0 8,7 26 14 - - E 1018,1 10 -
23.02.2018 08:00:00 2,3 -3,0 - - 22 12 - - E 1018,3 10 -
23.02.2018 07:00:00 1,9 -3,9 - - 21 11 - - E 1018,1 10 -
23.02.2018 06:00:00 1,6 -3,8 - - 15 8 - - E 1018,2 10 0,0
23.02.2018 05:00:00 1,8 -3,9 - - 18 10 - - E 1018,3 10 -
23.02.2018 04:00:00 2,0 -3,4 - - 15 8 - - E 1018,6 10 -
23.02.2018 03:00:00 2,7 -3,3 - - 18 10 - - E 1018,9 15 -
23.02.2018 02:00:00 3,0 -2,9 - - 18 10 - - E 1019,2 15 -
23.02.2018 01:00:00 2,8 -3,2 - - 24 13 - - E 1019,2 15 -
23.02.2018 00:00:00 3,2 -3,0 - - 24 13 - - E 1019,6 15 0,0
22.02.2018 23:00:00 3,0 -3,1 - - 26 14 - - E 1019,8 15 -
22.02.2018 22:00:00 3,1 -3,6 - - 24 13 - - E 1020,1 15 -
22.02.2018 21:00:00 3,2 -3,1 - - 26 14 - - E 1020,0 10 -
22.02.2018 20:00:00 3,4 -1,9 - - 18 10 - - ENE 1019,9 10 -
22.02.2018 19:00:00 3,5 -1,5 - - 24 13 - - ENE 1019,8 10 -
22.02.2018 18:00:00 3,5 -1,0 - - 21 11 - - ENE 1019,6 10 -
22.02.2018 17:00:00 4,2 -1,4 - - 22 12 - - ENE 1019,5 10 -
22.02.2018 16:00:00 4,8 -1,0 - - 22 12 - - ENE 1019,5 10 -
22.02.2018 15:00:00 6,0 -0,8 - - 22 12 - - ENE 1019,9 10 -
22.02.2018 14:00:00 5,9 -1,4 - - 18 10 - - ENE 1020,3 10 -
22.02.2018 13:00:00 5,8 -1,2 - - 26 14 - - ENE 1020,8 10 -
22.02.2018 12:00:00 5,7 -0,4 - - 24 13 - - ENE 1021,4 10 -
22.02.2018 11:00:00 5,4 -0,1 - - 22 12 - - ENE 1021,6 10 -
22.02.2018 10:00:00 4,9 0,6 - - 21 11 - - E 1021,4 10 -
22.02.2018 09:00:00 4,4 0,5 7,7 8,7 21 11 - - E 1021,9 10 -
22.02.2018 08:00:00 4,2 0,3 - - 15 8 - - E 1021,8 10 -
22.02.2018 07:00:00 4,3 0,1 - - 15 8 - - E 1021,5 10 -
22.02.2018 06:00:00 4,4 -0,1 - - 13 7 - - E 1021,7 10 -
22.02.2018 05:00:00 4,6 -0,3 - - 18 10 - - E 1021,6 10 -
22.02.2018 04:00:00 4,8 -0,1 - - 18 10 - - E 1021,7 10 -
22.02.2018 03:00:00 4,2 -0,6 - - 15 8 - - ENE 1022,0 25 -
22.02.2018 02:00:00 4,5 -0,8 - - 18 10 - - E 1022,4 22 -
22.02.2018 01:00:00 5,0 -0,3 - - 18 10 - - ENE 1022,7 20 -
22.02.2018 00:00:00 5,3 -0,5 - - 21 11 - - ENE 1023,3 18 -
21.02.2018 23:00:00 5,5 -0,2 - - 24 13 - - ENE 1023,4 18 -
21.02.2018 22:00:00 5,9 0,8 - - 21 11 - - NE 1023,8 15 -
21.02.2018 21:00:00 5,5 -0,6 - - 16 9 - - NE 1024,2 10 -
21.02.2018 20:00:00 5,2 -0,1 - - 16 9 - - NE 1024,5 10 -
21.02.2018 19:00:00 5,2 0,5 - - 18 10 - - NE 1024,3 10 -
21.02.2018 18:00:00 5,2 0,4 - - 16 9 - - NE 1024,1 10 0,0
21.02.2018 17:00:00 5,6 0,3 - - 18 10 - - NE 1024,0 10 -
21.02.2018 16:00:00 6,1 -0,7 - - 21 11 - - NE 1024,1 10 -
21.02.2018 15:00:00 6,5 0,4 - - 21 11 - - NE 1024,2 10 -
21.02.2018 14:00:00 7,2 0,1 - - 21 11 - - ENE 1024,7 10 -
21.02.2018 13:00:00 7,0 -0,2 - - 22 12 - - ENE 1025,4 10 -
21.02.2018 12:00:00 7,1 0,4 - - 24 13 - - ENE 1025,7 10 0,0
21.02.2018 11:00:00 6,4 0,6 - - 21 11 - - ENE 1025,8 10 -
21.02.2018 10:00:00 6,6 -0,8 - - 22 12 - - ENE 1025,9 10 -
21.02.2018 09:00:00 5,9 0,7 8,0 8,7 18 10 - - ENE 1025,6 10 -
21.02.2018 08:00:00 5,8 1,4 - - 21 11 - - ENE 1025,0 10 -
21.02.2018 07:00:00 5,9 0,4 - - 21 11 - - NE 1025,1 10 -
21.02.2018 06:00:00 6,2 3,4 - - 22 12 - - NE 1024,8 10 -
21.02.2018 05:00:00 6,5 3,6 - - 22 12 - - NE 1024,4 10 -
21.02.2018 04:00:00 6,7 2,9 - - 18 10 - - NE 1024,1 10 -
21.02.2018 03:00:00 7,1 3,2 - - 26 14 48 26 NNE 1023,8 40 -
21.02.2018 02:00:00 7,3 3,2 - - 31 17 52 28 NNE 1024,2 40 -
21.02.2018 01:00:00 7,5 3,1 - - 28 15 - - N 1024,3 40 -
21.02.2018 00:00:00 7,7 3,1 - - 29 16 48 26 N 1024,2 40 0,0
20.02.2018 23:00:00 7,9 2,8 - - 29 16 50 27 N 1024,1 40 -
20.02.2018 22:00:00 8,1 2,7 - - 29 16 52 28 N 1024,3 40 -
20.02.2018 21:00:00 8,3 1,9 - - 26 14 46 25 N 1024,3 10 -
20.02.2018 20:00:00 7,9 2,7 - - 22 12 - - N 1024,0 10 -
20.02.2018 19:00:00 7,9 3,4 - - 22 12 - - N 1023,9 10 -
20.02.2018 18:00:00 7,7 3,1 - - 22 12 - - N 1023,5 10 -
20.02.2018 17:00:00 8,3 2,5 - - 24 13 - - N 1023,3 10 -
20.02.2018 16:00:00 8,9 2,6 - - 28 15 - - N 1022,8 10 -
20.02.2018 15:00:00 9,0 3,2 - - 28 15 48 26 N 1022,7 10 -
20.02.2018 14:00:00 8,9 3,3 - - 31 17 52 28 N 1022,9 10 -
20.02.2018 13:00:00 8,9 3,8 - - 34 18 50 27 N 1023,0 10 -
20.02.2018 12:00:00 8,9 4,0 - - 29 16 48 26 N 1023,0 10 -
20.02.2018 11:00:00 8,9 6,0 - - 29 16 48 26 N 1022,9 10 -
20.02.2018 10:00:00 8,4 6,4 - - 28 15 - - N 1022,4 10 -
20.02.2018 09:00:00 8,6 7,0 8,2 8,4 24 13 - - NNW 1022,0 10 -
20.02.2018 08:00:00 8,8 8,2 - - 22 12 - - NNW 1021,5 10 -
20.02.2018 07:00:00 8,7 8,3 - - 16 9 - - NNW 1020,7 10 -
20.02.2018 06:00:00 8,4 7,9 - - 18 10 - - NNW 1020,6 10 0,0
20.02.2018 05:00:00 8,3 7,7 - - 21 11 - - NNW 1020,6 10 -
20.02.2018 04:00:00 8,7 7,9 - - 22 12 - - NNW 1020,2 10 -
20.02.2018 03:00:00 9,0 8,0 - - 21 11 - - NNW 1020,0 25 -
20.02.2018 02:00:00 9,2 8,0 - - 22 12 - - NNW 1020,0 25 -
20.02.2018 01:00:00 9,1 8,2 - - 18 10 - - NNW 1019,7 25 -
20.02.2018 00:00:00 9,2 8,0 - - 18 10 - - NNW 1019,9 25 0,0
19.02.2018 23:00:00 9,1 7,9 - - 21 11 - - NW 1019,5 25 -
19.02.2018 22:00:00 9,1 8,1 - - 22 12 - - NW 1019,2 10 -
19.02.2018 21:00:00 9,2 8,1 - - 18 10 - - NW 1019,3 10 -
19.02.2018 20:00:00 9,0 8,1 - - 21 11 - - NW 1019,4 10 -
19.02.2018 19:00:00 9,1 8,7 - - 18 10 - - NW 1019,2 10 -
19.02.2018 18:00:00 9,2 9,1 - - 18 10 - - NW 1019,3 10 -
19.02.2018 17:00:00 9,3 9,2 - - 16 9 - - NW 1019,0 10 -
19.02.2018 16:00:00 9,4 9,4 - - 16 9 - - NW 1018,6 9 -
19.02.2018 15:00:00 9,7 9,6 - - 18 10 - - NW 1018,7 9 -
19.02.2018 14:00:00 9,5 9,5 - - 21 11 - - NW 1018,8 3,0 -
19.02.2018 13:00:00 9,9 9,9 - - 21 11 - - NW 1019,0 3,2 -
19.02.2018 12:00:00 10,2 10,2 - - 15 8 - - NW 1019,3 10 -
19.02.2018 11:00:00 9,8 9,8 - - 13 7 - - NW 1019,3 3,8 -
19.02.2018 10:00:00 9,3 9,3 - - 13 7 - - NW 1019,4 0,2 -
19.02.2018 09:00:00 9,3 9,3 7,7 8,2 15 8 - - NW 1019,3 0,1 -

tt = Température de l'air
td = dewpoint
tt -20cm = Température de l'air -20cm
tt -100cm = Température de l'air -100cm
ff = Vitesse du vent
fx = gusts
dd = Direction du vent
ppp = reduced air pressure
vv = visibility
rr = Quantités de précipitations

stations d'obs. à proximité